User: anonymous   Login
Location: Whispering Pines Observatory
(39.4020°N, 104.7430°W)
Time: 03:51:49
(UTC-06:00)
Language:

MOS 1 Rocket - Orbit

View from above orbital plane
View from above orbital plane
View from above satellite
View from above satellite

Ground track
Ground track

The orbit data is extracted from the following two-line orbital elements,

1 17528U 87018B   17114.90252785 +.00000190 +00000-0 +50545-4 0  9992
2 17528 097.4465 078.0085 0153474 104.1708 315.4704 14.50764572571539
Epoch (UTC): 24 April 2017 21:39:38
Eccentricity: 0.0153474
inclination: 97.4465°
perigee height: 614 km
apogee height: 832 km
right ascension of ascending node: 78.0085°
argument of perigee: 104.1708°
revolutions per day: 14.50764572
mean anomaly at epoch: 315.4704°
orbit number at epoch: 57153

The dashed part of the orbit path shows where the satellite is in the earth's shadow,  

DLR